EW3232 Weather Reports


Display with metric or nautical units.
time (UTC)temp
F
wind
direction
speed
MPH
gust
MPH
rain 1hr
in
rain 24hr
in
rain mn
in
humidity
%
barometer
mb
20260902081651 75 65 3.0 8.0 0.00 0.00 0.00 74 1021.6
20260902080123 74 77 3.0 8.0 0.00 0.00 0.00 74 1021.4
20260902074527 74 71 2.0 5.0 0.00 0.00 0.00 75 1021.2
20260902073034 73 63 1.0 3.0 0.00 0.00 0.00 77 1021.0
20260902071559 72 75 0.0 2.0 0.00 0.00 0.00 80 1021.0
20260902070039 70 360 0.0 2.0 0.00 0.00 0.00 86 1021.0
20260902064612 68 24 0.0 2.0 0.00 0.00 0.00 89 1020.9
20260902063035 66 264 0.0 2.0 0.00 0.00 0.00 92 1020.7
20260902061557 65 264 1.0 2.0 0.00 0.00 0.00 92 1020.6
20260902060128 65 264 0.0 2.0 0.00 0.00 0.00 93 1020.6
20260902054622 65 264 0.0 2.0 0.00 0.00 0.00 93 1020.5
20260902051702 64 267 1.0 2.0 0.00 0.00 0.00 92 1020.4
20260902050156 65 267 0.0 0.0 0.00 0.00 0.00 92 1020.3
20260902044532 65 267 0.0 2.0 0.00 0.00 0.00 92 1020.4
20260902043110 65 264 1.0 2.0 0.00 0.00 0.00 92 1020.2
20260902041613 65 281 1.0 2.0 0.00 0.00 0.00 92 1020.1
20260902040118 65 281 0.0 2.0 0.00 0.00 0.00 91 1020.1
20260902034615 65 281 0.0 1.0 0.00 0.00 0.00 91 1020.3
20260902033129 65 264 2.0 4.0 0.00 0.00 0.00 91 1020.1
20260902031645 66 273 0.0 3.0 0.00 0.00 0.00 91 1020.1
20260902024510 66 279 0.0 2.0 0.00 0.00 0.00 90 1020.1
20260902023010 67 279 0.0 2.0 0.00 0.00 0.00 89 1020.1
20260902021543 67 250 1.0 3.0 0.00 0.00 0.00 90 1020.0
20260902020145 67 201 0.0 2.0 0.00 0.00 0.00 88 1020.2
20260902014531 68 201 0.0 3.0 0.00 0.00 0.00 88 1020.3
20260902013019 68 246 0.0 2.0 0.00 0.00 0.00 87 1020.2
20260902011530 68 261 1.0 3.0 0.00 0.00 0.00 88 1020.3
20260902010035 69 266 2.0 4.0 0.00 0.00 0.00 87 1020.4
20260902004502 70 265 0.0 4.0 0.00 0.00 0.00 85 1020.4
20260902003027 70 250 2.0 5.0 0.00 0.00 0.00 86 1020.5
20260902001601 70 243 2.0 4.0 0.00 0.00 0.00 86 1020.6
20260902000107 70 268 3.0 6.0 0.00 0.00 0.00 87 1020.6
20260901234535 68 260 4.0 6.0 0.00 0.00 0.00 88 1020.7
20260901233028 68 255 3.0 4.0 0.00 0.00 0.00 89 1020.6
20260901231556 68 281 2.0 6.0 0.00 0.00 0.00 89 1020.7
20260901230107 68 264 3.0 4.0 0.00 0.00 0.00 88 1020.7
20260901224516 68 246 2.0 4.0 0.00 0.00 0.00 89 1020.7
20260901223044 67 263 4.0 6.0 0.00 0.00 0.00 89 1020.6
20260901221632 68 274 3.0 4.0 0.00 0.00 0.00 88 1020.7
20260901220012 68 287 0.0 3.0 0.00 0.00 0.00 88 1020.7
20260901214625 68 266 1.0 3.0 0.00 0.00 0.00 86 1020.5
20260901213120 69 347 1.0 3.0 0.00 0.00 0.00 86 1020.5
20260901211641 69 312 0.0 3.0 0.00 0.00 0.00 86 1020.4
20260901210135 70 262 1.0 3.0 0.00 0.00 0.00 85 1020.3
20260901204642 70 318 1.0 4.0 0.00 0.00 0.00 84 1020.1
20260901203156 70 331 1.0 3.0 0.00 0.00 0.00 84 1020.0
20260901200055 72 52 1.0 2.0 0.00 0.00 0.00 82 1019.8
20260901194602 72 287 0.0 2.0 0.00 0.00 0.00 79 1019.5
20260901193122 73 287 1.0 3.0 0.00 0.00 0.00 79 1019.4
20260901191608 74 275 1.0 6.0 0.00 0.00 0.00 77 1019.1
20260901190100 74 356 1.0 3.0 0.00 0.00 0.00 76 1018.8
20260901190002 74 358 0.0 0.0 1.65 0.00 0.00 76 1018.9
20260901184522 76 286 0.0 2.0 0.00 0.00 0.00 74 1018.7
20260901183044 77 136 0.0 2.0 0.00 0.00 0.00 73 1018.6
20260901181520 77 110 3.0 7.0 0.00 0.00 0.00 73 1018.6
20260901180005 78 151 1.0 4.0 0.00 0.00 0.00 71 1018.8
20260901174558 78 127 3.0 7.0 0.00 0.00 0.00 71 1018.8
20260901173039 79 79 4.0 7.0 0.00 0.00 0.00 69 1018.8
20260901171606 79 96 3.0 6.0 0.00 0.00 0.00 68 1019.0
20260901170059 79 104 3.0 10.0 0.00 0.00 0.00 66 1019.2
20260901164613 79 93 3.0 12.0 0.00 0.00 0.00 68 1019.2
20260901161516 79 94 1.0 8.0 0.00 0.00 0.00 68 1019.1
20260901160154 79 131 4.0 10.0 0.00 0.00 0.00 69 1019.3
20260901153027 78 129 7.0 10.0 0.00 0.00 0.00 70 1019.3
20260901151551 77 131 6.0 11.0 0.00 0.00 0.00 72 1019.9
20260901150003 78 71 7.0 15.0 0.00 0.00 0.00 72 1020.1
20260901144505 78 125 6.0 12.0 0.00 0.00 0.00 72 1020.0
20260901143028 78 125 6.0 14.0 0.00 0.00 0.00 71 1020.0
20260901141542 78 155 4.0 14.0 0.00 0.00 0.00 72 1020.4
20260901140046 79 121 7.0 12.0 0.00 0.00 0.00 70 1020.1
20260901134628 78 88 5.0 11.0 0.00 0.00 0.00 72 1019.8
20260901133101 78 121 3.0 10.0 0.00 0.00 0.00 73 1020.3
20260901130005 77 85 5.0 10.0 0.00 0.00 0.00 74 1020.5
20260901124527 77 113 6.0 11.0 0.00 0.00 0.00 74 1020.9
20260901123049 77 74 7.0 11.0 0.00 0.00 0.00 75 1020.9
20260901121615 78 108 6.0 11.0 0.00 0.00 0.00 74 1020.9
20260901120056 78 62 5.0 12.0 0.00 0.00 0.00 74 1021.1
20260901114631 78 129 4.0 10.0 0.00 0.00 0.00 71 1020.9
20260901113145 78 51 9.0 13.0 0.00 0.00 0.00 71 1021.0
20260901111635 78 111 5.0 14.0 0.00 0.00 0.00 73 1021.1
20260901110118 77 128 7.0 11.0 0.00 0.00 0.00 74 1021.3
20260901104632 78 102 5.0 12.0 0.00 0.00 0.00 73 1021.5
20260901103049 77 75 6.0 13.0 0.00 0.00 0.00 75 1021.4
20260901101506 76 90 5.0 9.0 0.00 0.00 0.00 78 1021.8
20260901100007 76 96 3.0 8.0 0.00 0.00 0.00 77 1021.8
20260901094529 75 77 6.0 9.0 0.00 0.00 0.00 78 1021.8
20260901093032 75 135 1.0 9.0 0.00 0.00 0.00 79 1022.1
20260901091552 74 135 3.0 7.0 0.00 0.00 0.00 80 1021.9
20260901090100 74 118 2.0 7.0 0.00 0.00 0.00 80 1021.7
20260901084608 74 119 2.0 8.0 0.00 0.00 0.00 81 1021.6
20260901083102 74 50 0.0 4.0 0.00 0.00 0.00 81 1021.4